Weather in Lvovskoye

Russia / Kaliningrad Oblast     54°24′10″N   21°57′12″E
temp.,
°C
wind,
m/s
gust,
m/s
humid.,
%
clouds,
%
prec.,
mm/h
press.,
hPa
HPBL,
m
12 may, wed
wed1223:00+16se616685 0.0 1014541
02:00+13se616676 0.0 1014461
05:00+12se515745 0.0 1013371
08:00+17se715755 0.0 1013681
11:00+21se712645 0.0 10131227
14:00+23se7106252 0.0 10121723
17:00+20ese6967100 0.0 10121290
20:00+15ese511710 0.0 1012381
13 may, thu
thu1323:00+11ese411820 0.0 1012243
02:00+9ese38870 0.0 1010139
05:00+8se228715 0.0 100837
08:00+13ene237288 0.0 1007336
11:00+10e2493100 1.1 1006202
14:00+11nne019197 1.7 1004189
17:00+12se1184100 0.1 1002437
20:00+10s369498 0.6 1002314
14 may, fri
fri1423:00+9se499573 0.3 1002380
02:00+9ese3797100 0.8 1001287
05:00+9ese2498100 0.3 1001226
08:00+11se239281 0.3 1001406
11:00+15s347543 0.1 1002858
14:00+17sw45627 0.4 10021423
17:00+17wsw236961 0.6 1002832
20:00+12nnw22915 1.0 100322
15 may, sat
sat1523:00+10ssw119399 0.0 100413
02:00+8wnw2397100 0.0 100557
05:00+7wnw2294100 0.0 100763
08:00+10wnw2387100 0.0 1007298
11:00+12wnw2377100 0.0 1008558
14:00+15wnw336798 0.1 10081225
17:00+15nw3472100 0.1 1008901
20:00+11n2487100 0.1 1009100
16 may, sun
sun1623:00+9nw1282100 0.0 101040
02:00+9n118019 0.0 101114
05:00+6ese11896 0.0 101110
08:00+12e127699 0.0 1011291
11:00+17ese236675 0.0 10111207
14:00+18ese2469100 0.1 1010846
17:00+18e3574100 0.2 1009487
20:00+14e3786100 0.8 1009126